This is the latest recevied weather packets stored in our database for station/object DB0MOD. If no packets are shown the sender has not sent any weather packets the latest 10 day(s).
| Time | Temp. | Humidity | Pressure | Rain* | Wind** | Luminosity | Snow |
|---|---|---|---|---|---|---|---|
| 1777722554 | 22.78° C | 38% | 1022.2 hPa | 0 mm | - | - | - |
| 1777722253 | 22.22° C | 39% | 1022.3 hPa | 0 mm | - | - | - |
| 1777721953 | 22.22° C | 40% | 1022.3 hPa | 0 mm | - | - | - |
| 1777721353 | 22.22° C | 39% | 1022.5 hPa | 0 mm | - | - | - |
| 1777721055 | 22.78° C | 39% | 1022.4 hPa | 0 mm | - | - | - |
| 1777720753 | 22.78° C | 39% | 1022.5 hPa | 0 mm | - | - | - |
| 1777720454 | 22.78° C | 39% | 1022.4 hPa | 0 mm | - | - | - |
| 1777720153 | 22.78° C | 38% | 1022.7 hPa | 0 mm | - | - | - |
| 1777719853 | 22.78° C | 38% | 1022.7 hPa | 0 mm | - | - | - |
| 1777719555 | 23.33° C | 37% | 1022.6 hPa | 0 mm | - | - | - |
| 1777719253 | 23.89° C | 37% | 1022.7 hPa | 0 mm | - | - | - |
| 1777718953 | 24.44° C | 37% | 1022.6 hPa | 0 mm | - | - | - |
| 1777718653 | 24.44° C | 36% | 1022.7 hPa | 0 mm | - | - | - |
| 1777718353 | 25° C | 36% | 1022.8 hPa | 0 mm | - | - | - |
| 1777718053 | 24.44° C | 36% | 1022.8 hPa | 0 mm | - | - | - |
| 1777717754 | 24.44° C | 36% | 1022.7 hPa | 0 mm | - | - | - |
| 1777717153 | 25.56° C | 35% | 1022.8 hPa | 0 mm | - | - | - |
| 1777716853 | 26.11° C | 35% | 1023 hPa | 0 mm | - | - | - |
| 1777716554 | 26.67° C | 34% | 1022.8 hPa | 0 mm | - | - | - |
| 1777715953 | 26.67° C | 35% | 1022.7 hPa | 0 mm | - | - | - |
| 1777715353 | 26.67° C | 34% | 1022.7 hPa | 0 mm | - | - | - |
| 1777715053 | 26.67° C | 34% | 1022.9 hPa | 0 mm | - | - | - |
| 1777714753 | 26.11° C | 35% | 1022.8 hPa | 0 mm | - | - | - |
| 1777714454 | 25.56° C | 35% | 1022.9 hPa | 0 mm | - | - | - |
| 1777714154 | 25.56° C | 35% | 1022.8 hPa | 0 mm | - | - | - |
* Rain latest hour (hover to see other rain measurements)
** Current wind speed in m/s (hover to see current wind gust speed)